| time (UTC) | temp F | wind direction | speed knots | gust knots | rain 1hr in | rain 24hr in | rain mn in | humidity % | barometer mb |
| 20260503071726 | 58 | 230 | 0.9 | 1.7 | 0.00 | 0.00 | 0.00 | 56 | 1021.3 |
| 20260503070225 | 56 | 137 | 0.0 | 0.0 | 0.00 | 0.00 | 0.00 | 60 | 1021.4 |
| 20260503060212 | 50 | 83 | 0.0 | 0.0 | 0.00 | 0.00 | 0.00 | 67 | 1021.3 |
| 20260503054716 | 49 | 81 | 0.9 | 2.6 | 0.00 | 0.00 | 0.00 | 68 | 1021.2 |
| 20260503053217 | 48 | 84 | 1.7 | 3.5 | 0.00 | 0.00 | 0.00 | 69 | 1021.2 |
| 20260503051721 | 48 | 89 | 0.9 | 1.7 | 0.00 | 0.00 | 0.00 | 68 | 1021.2 |
| 20260503050222 | 48 | 76 | 1.7 | 2.6 | 0.00 | 0.00 | 0.00 | 68 | 1021.1 |
| 20260503044723 | 48 | 76 | 1.7 | 2.6 | 0.00 | 0.00 | 0.00 | 67 | 1021.3 |
| 20260503043227 | 47 | 100 | 1.7 | 4.3 | 0.00 | 0.00 | 0.00 | 66 | 1021.1 |
| 20260503041728 | 48 | 106 | 1.7 | 2.6 | 0.00 | 0.00 | 0.00 | 65 | 1021.3 |
| 20260503040213 | 48 | 85 | 2.6 | 5.2 | 0.00 | 0.00 | 0.00 | 63 | 1021.1 |
| 20260503034715 | 47 | 81 | 1.7 | 5.2 | 0.00 | 0.00 | 0.00 | 66 | 1021.2 |
| 20260503033216 | 48 | 81 | 1.7 | 4.3 | 0.00 | 0.00 | 0.00 | 66 | 1021.2 |
| 20260503031720 | 47 | 92 | 2.6 | 3.5 | 0.00 | 0.00 | 0.00 | 68 | 1021.2 |
| 20260503030220 | 47 | 87 | 1.7 | 3.5 | 0.00 | 0.00 | 0.00 | 71 | 1021.4 |
| 20260503024720 | 48 | 80 | 1.7 | 2.6 | 0.00 | 0.00 | 0.00 | 70 | 1021.5 |
| 20260503023226 | 49 | 60 | 1.7 | 3.5 | 0.00 | 0.00 | 0.00 | 70 | 1021.5 |
| 20260503021729 | 49 | 92 | 1.7 | 4.3 | 0.00 | 0.00 | 0.00 | 72 | 1021.5 |
| 20260503020212 | 49 | 51 | 0.0 | 5.2 | 0.00 | 0.00 | 0.00 | 72 | 1021.7 |
| 20260503014713 | 50 | 76 | 1.7 | 5.2 | 0.00 | 0.00 | 0.00 | 72 | 1021.8 |
| 20260503013216 | 50 | 82 | 2.6 | 5.2 | 0.00 | 0.00 | 0.00 | 71 | 1021.9 |
| 20260503011716 | 50 | 115 | 2.6 | 6.1 | 0.00 | 0.00 | 0.00 | 71 | 1021.9 |
| 20260503010213 | 50 | 87 | 3.5 | 5.2 | 0.00 | 0.00 | 0.00 | 71 | 1022.0 |
| 20260503004716 | 49 | 79 | 2.6 | 4.3 | 0.00 | 0.00 | 0.00 | 73 | 1022.3 |
| 20260503003226 | 49 | 71 | 3.5 | 5.2 | 0.00 | 0.00 | 0.00 | 73 | 1022.6 |
| 20260503001728 | 49 | 71 | 3.5 | 4.3 | 0.00 | 0.00 | 0.00 | 72 | 1022.7 |
| 20260502234728 | 50 | 77 | 2.6 | 4.3 | 0.00 | 0.00 | 0.00 | 70 | 1023.0 |
| 20260502233227 | 49 | 84 | 1.7 | 3.5 | 0.00 | 0.00 | 0.00 | 72 | 1023.0 |
| 20260502231727 | 50 | 71 | 2.6 | 4.3 | 0.00 | 0.00 | 0.00 | 68 | 1023.3 |
| 20260502230222 | 50 | 63 | 2.6 | 5.2 | 0.00 | 0.00 | 0.00 | 70 | 1023.4 |
| 20260502224723 | 50 | 65 | 2.6 | 4.3 | 0.00 | 0.00 | 0.00 | 69 | 1023.3 |
| 20260502223227 | 50 | 67 | 2.6 | 7.0 | 0.00 | 0.00 | 0.00 | 68 | 1023.4 |
| 20260502221727 | 49 | 67 | 3.5 | 5.2 | 0.00 | 0.00 | 0.00 | 69 | 1023.4 |
| 20260502220211 | 50 | 72 | 3.5 | 5.2 | 0.00 | 0.00 | 0.00 | 71 | 1023.5 |
| 20260502214713 | 50 | 71 | 1.7 | 3.5 | 0.00 | 0.00 | 0.00 | 68 | 1023.5 |
| 20260502213229 | 51 | 104 | 2.6 | 3.5 | 0.00 | 0.00 | 0.00 | 68 | 1023.4 |
| 20260502211713 | 51 | 65 | 2.6 | 4.3 | 0.00 | 0.00 | 0.00 | 65 | 1023.4 |
| 20260502210223 | 51 | 66 | 2.6 | 7.0 | 0.00 | 0.00 | 0.00 | 66 | 1023.5 |
| 20260502203221 | 50 | 67 | 4.3 | 5.2 | 0.00 | 0.00 | 0.00 | 71 | 1023.7 |
| 20260502201716 | 51 | 69 | 3.5 | 4.3 | 0.00 | 0.00 | 0.00 | 70 | 1023.8 |
| 20260502200219 | 51 | 54 | 4.3 | 4.3 | 0.00 | 0.00 | 0.00 | 70 | 1023.7 |
| 20260502193228 | 51 | 69 | 2.6 | 4.3 | 0.00 | 0.00 | 0.00 | 70 | 1023.5 |
| 20260502191725 | 52 | 84 | 2.6 | 3.5 | 0.00 | 0.00 | 0.00 | 69 | 1023.5 |
| 20260502181723 | 56 | 246 | 0.0 | 0.9 | 0.00 | 0.00 | 0.00 | 61 | 1023.3 |
| 20260502180215 | 58 | 332 | 0.0 | 0.9 | 0.00 | 0.00 | 0.00 | 60 | 1023.3 |
| 20260502170217 | 63 | 237 | 3.5 | 7.0 | 0.00 | 0.00 | 0.00 | 49 | 1023.1 |
| 20260502163228 | 63 | 138 | 4.3 | 7.0 | 0.00 | 0.00 | 0.00 | 48 | 1023.2 |
| 20260502160211 | 64 | 212 | 3.5 | 7.0 | 0.00 | 0.00 | 0.00 | 48 | 1023.5 |
| 20260502151728 | 64 | 239 | 3.5 | 7.8 | 0.00 | 0.00 | 0.00 | 50 | 1023.8 |
| 20260502150221 | 64 | 284 | 3.5 | 9.6 | 0.00 | 0.00 | 0.00 | 50 | 1023.7 |
| 20260502123223 | 62 | 229 | 3.5 | 7.8 | 0.00 | 0.00 | 0.00 | 52 | 1025.4 |
| 20260502121717 | 62 | 187 | 3.5 | 9.6 | 0.00 | 0.00 | 0.00 | 53 | 1025.5 |
| 20260502120229 | 61 | 275 | 2.6 | 8.7 | 0.00 | 0.00 | 0.00 | 53 | 1025.6 |
| 20260502113214 | 61 | 181 | 2.6 | 8.7 | 0.00 | 0.00 | 0.00 | 54 | 1026.0 |
| 20260502111711 | 61 | 219 | 2.6 | 7.0 | 0.00 | 0.00 | 0.00 | 54 | 1026.1 |
| 20260502110215 | 61 | 229 | 3.5 | 7.8 | 0.00 | 0.00 | 0.00 | 53 | 1026.3 |
| 20260502104715 | 61 | 205 | 3.5 | 7.8 | 0.00 | 0.00 | 0.00 | 53 | 1026.6 |
| 20260502103216 | 60 | 222 | 3.5 | 7.0 | 0.00 | 0.00 | 0.00 | 53 | 1026.7 |
| 20260502101716 | 59 | 217 | 2.6 | 7.8 | 0.00 | 0.00 | 0.00 | 53 | 1026.7 |
| 20260502100214 | 59 | 221 | 3.5 | 7.8 | 0.00 | 0.00 | 0.00 | 54 | 1026.8 |
| 20260502090219 | 57 | 225 | 2.6 | 7.0 | 0.00 | 0.00 | 0.00 | 57 | 1027.3 |